Jenks, OK

1:03 AM CDT on September 27, 2016 (GMT -0500)
Jones Jr.

Weather History for KRVS - December, 2013

Change the Weather History Date:

Thursday, December 12, 2013

  Actual Average (KTUL) Record (KTUL)
Temperature  
Mean Temperature 29 °F 40 °F  
Max Temperature 43 °F 50 °F 73 °F (1924)
Min Temperature 15 °F 30 °F 3 °F (1962)
Degree Days  
Heating Degree Days 36 25  
Month to date heating degree days 284  
Since 1 July heating degree days 920  
Moisture  
Dew Point 21 °F    
Average Humidity 69    
Maximum Humidity 88    
Minimum Humidity 49    
Precipitation  
Precipitation 0.00 in 0.08 in 1.82 in (1923)
Month to date precipitation 1.03  
Year to date precipitation 39.51  
Sea Level Pressure  
Sea Level Pressure 30.51 in    
Wind  
Wind Speed 4 mph (South)    
Max Wind Speed 13 mph    
Max Gust Speed -    
Visibility 9 miles    
Events      
T = Trace of Precipitation, MM = Missing Value Source: NWS Daily Summary

Daily Weather History Graph

Daily Weather History Graph

Search for Another Location

Airport or City:

Trip Planner

Search our weather history database for the weather conditions in past years. The results will help you decide how hot, cold, wet, or windy it might be!

Date:

Astronomy

Dec. 12, 2013 Rise Set
Actual Time 7:25 AM CST 5:10 PM CST
Civil Twilight 6:56 AM CST 5:38 PM CST
Nautical Twilight 6:24 AM CST 6:10 PM CST
Astronomical Twilight 5:53 AM CST 6:42 PM CST
Moon 2:12 PM CST (12/12) 2:55 AM CST (12/12)
Length of Visible Light 10h 41m
Length of Day
9h 44m
Waxing Gibbous, 80% of the Moon is Illuminated
Dec 12
Waxing Gibbous
Dec 17
Full
Dec 25
Last Quarter
Jan 1
New
Jan 7
First Quarter

Hourly Weather History & Observations

Time (CST) Temp. Windchill Dew Point Humidity Pressure Visibility Wind Dir Wind Speed Gust Speed Precip Events Conditions
12:53 AM 19.0 °F - 15.1 °F 85% 30.67 in 10.0 mi Calm Calm - N/A   Clear
1:53 AM 19.0 °F - 15.1 °F 85% 30.64 in 10.0 mi Calm Calm - N/A   Clear
2:53 AM 18.0 °F - 14.0 °F 84% 30.64 in 10.0 mi Calm Calm - N/A   Clear
3:53 AM 16.0 °F - 12.9 °F 88% 30.64 in 10.0 mi Calm Calm - N/A   Clear
4:53 AM 16.0 °F - 12.0 °F 84% 30.64 in 10.0 mi Calm Calm - N/A   Clear
5:53 AM 15.1 °F - 12.0 °F 88% 30.62 in 10.0 mi Calm Calm - N/A   Clear
6:53 AM 15.1 °F 9.4 °F 10.9 °F 84% 30.62 in 10.0 mi SW 3.5 mph - N/A   Clear
7:53 AM 18.0 °F - 14.0 °F 84% 30.62 in 10.0 mi Calm Calm - N/A   Clear
8:53 AM 21.9 °F - 16.0 °F 78% 30.62 in 10.0 mi Calm Calm - N/A   Clear
9:53 AM 30.0 °F 22.4 °F 19.0 °F 64% 30.63 in 10.0 mi South 8.1 mph - N/A   Clear
10:53 AM 35.1 °F 27.4 °F 21.9 °F 59% 30.62 in 10.0 mi South 10.4 mph - N/A   Clear
11:53 AM 39.9 °F 33.4 °F 24.1 °F 53% 30.56 in 10.0 mi South 10.4 mph - N/A   Clear
12:07 PM 39.2 °F 31.6 °F 24.8 °F 56% 30.52 in 0.8 mi South 12.7 mph - N/A   Haze
12:16 PM 41.0 °F 35.2 °F 24.8 °F 53% 30.52 in 0.2 mi South 9.2 mph - N/A   Haze
12:23 PM 41.0 °F 34.3 °F 26.6 °F 57% 30.51 in 1.8 mi South 11.5 mph - N/A   Haze
12:30 PM 42.8 °F 36.6 °F 24.8 °F 49% 30.51 in 10.0 mi South 11.5 mph - N/A   Clear
12:53 PM 43.0 °F 36.8 °F 25.0 °F 49% 30.53 in 10.0 mi South 11.5 mph - N/A   Clear
1:53 PM 42.1 °F 36.6 °F 26.1 °F 53% 30.49 in 10.0 mi South 9.2 mph - N/A   Clear
2:53 PM 42.1 °F 36.6 °F 26.1 °F 53% 30.45 in 10.0 mi South 9.2 mph - N/A   Clear
3:53 PM 41.0 °F 38.0 °F 26.1 °F 55% 30.43 in 10.0 mi South 4.6 mph - N/A   Clear
4:53 PM 39.0 °F 34.8 °F 26.1 °F 60% 30.42 in 10.0 mi South 5.8 mph - N/A   Clear
5:53 PM 34.0 °F 31.0 °F 26.1 °F 73% 30.41 in 10.0 mi South 3.5 mph - N/A   Clear
6:53 PM 33.1 °F 30.0 °F 25.0 °F 72% 30.40 in 10.0 mi South 3.5 mph - N/A   Clear
7:53 PM 33.1 °F 27.7 °F 25.0 °F 72% 30.39 in 10.0 mi South 5.8 mph - N/A   Clear
8:53 PM 34.0 °F 28.8 °F 25.0 °F 70% 30.37 in 10.0 mi South 5.8 mph - N/A   Clear
9:53 PM 36.0 °F 31.1 °F 27.0 °F 70% 30.34 in 10.0 mi South 5.8 mph - N/A   Clear
10:53 PM 35.1 °F 29.3 °F 27.0 °F 72% 30.31 in 10.0 mi South 6.9 mph - N/A   Clear
11:53 PM 35.1 °F 31.0 °F 28.0 °F 76% 30.26 in 10.0 mi SSE 4.6 mph - N/A   Clear